Temperature
4 4 4 4 4 3 2 1 1 0 0 -0 -1 -1 -1 -2 -4 -5 -7 -8 -9 -10 -10 -10 -10 -10 -11 -11 -12 -12 -12 -12 -12 -12 -13 -12 -12 -11 -11 -10 -9 -9 -8 -7
4 3 2 3 3 2 2 2 1 0 -0 0 1 -0 -1 -3 -5 -7 -8 -9 -9 -10 -10 -10 -11 -11 -12 -12 -12 -13 -13 -13 -13 -13 -13 -13 -13 -12 -12 -11 -10 -10 -9 -8
3 1 3 2 2 2 2 2 1 -0 -0 -0 -1 -1 -2 -4 -6 -7 -8 -9 -10 -10 -10 -11 -11 -12 -12 -13 -13 -13 -13 -14 -14 -14 -14 -14 -14 -13 -13 -12 -11 -11 -10 -9
1 1 4 3 2 2 2 1 0 -0 -1 0 -1 -2 -3 -5 -6 -7 -8 -10 -10 -10 -10 -11 -11 -12 -12 -13 -13 -13 -14 -14 -14 -14 -14 -14 -14 -14 -13 -13 -12 -12 -11 -10
-0 1 1 2 2 2 1 0 0 0 0 0 -1 -3 -4 -6 -7 -8 -9 -10 -10 -10 -11 -11 -12 -12 -13 -13 -13 -14 -14 -14 -14 -15 -14 -15 -15 -14 -14 -13 -13 -13 -12 -12
-1 2 3 4 2 2 1 -1 1 1 -0 -1 -3 -4 -5 -6 -7 -8 -9 -9 -10 -10 -11 -11 -12 -12 -13 -13 -14 -14 -14 -14 -14 -15 -15 -15 -15 -15 -14 -14 -14 -13 -13 -12
-2 -1 1 2 2 1 0 1 1 1 -0 -2 -4 -5 -6 -7 -7 -8 -8 -9 -9 -10 -10 -11 -12 -13 -13 -14 -14 -14 -14 -14 -14 -14 -15 -15 -15 -15 -14 -14 -14 -14 -13 -13
-2 -1 0 2 0 -0 1 2 1 -0 -1 -3 -4 -6 -7 -7 -8 -8 -8 -9 -9 -10 -10 -11 -12 -13 -13 -14 -14 -14 -14 -14 -14 -14 -15 -15 -15 -15 -14 -15 -15 -15 -14 -14
0 1 2 3 3 2 2 1 0 -1 -2 -3 -5 -6 -7 -7 -8 -8 -9 -9 -9 -10 -10 -11 -11 -13 -13 -14 -14 -14 -14 -14 -14 -14 -14 -15 -15 -15 -15 -15 -15 -15 -15 -15
-1 -1 2 2 2 2 1 0 -1 -2 -3 -4 -5 -6 -7 -7 -8 -8 -8 -9 -9 -10 -10 -10 -11 -12 -13 -13 -14 -14 -14 -14 -14 -14 -14 -14 -14 -15 -15 -15 -15 -15 -15 -15
-1 -0 1 2 2 1 0 -0 -1 -3 -4 -5 -6 -7 -7 -8 -8 -8 -9 -9 -9 -10 -10 -10 -11 -11 -12 -13 -14 -14 -14 -13 -13 -13 -14 -14 -14 -14 -15 -15 -15 -15 -15 -15
0 1 1 1 1 1 0 -1 -2 -3 -4 -5 -6 -7 -7 -8 -8 -8 -9 -9 -9 -10 -10 -10 -11 -11 -12 -13 -13 -13 -13 -13 -13 -14 -14 -15 -15 -15 -15 -15 -15 -15 -15 -15
3 3 2 1 1 0 -0 -1 -3 -4 -5 -6 -7 -7 -7 -8 -8 -8 -9 -9 -9 -10 -10 -10 -11 -11 -12 -12 -13 -13 -13 -13 -14 -15 -15 -15 -16 -15 -15 -15 -15 -15 -15 -15
2 2 1 1 0 -0 -1 -2 -4 -5 -6 -6 -7 -7 -8 -8 -8 -8 -9 -9 -9 -10 -10 -10 -10 -11 -11 -12 -12 -12 -12 -12 -14 -14 -15 -15 -15 -15 -15 -15 -15 -15 -15 -15
1 1 1 1 0 -1 -2 -4 -5 -6 -6 -6 -7 -7 -7 -7 -8 -8 -9 -9 -9 -9 -9 -10 -10 -10 -11 -11 -11 -11 -12 -12 -14 -14 -14 -14 -15 -15 -15 -15 -16 -16 -15 -15
1 1 1 0 -0 -2 -4 -5 -5 -6 -6 -7 -7 -7 -7 -7 -8 -8 -9 -9 -9 -9 -9 -9 -9 -10 -10 -11 -11 -11 -12 -13 -13 -14 -14 -14 -14 -14 -15 -15 -15 -16 -16 -16
1 1 0 0 -1 -3 -4 -5 -5 -6 -6 -6 -7 -7 -7 -7 -7 -8 -8 -8 -8 -9 -9 -9 -9 -10 -10 -10 -11 -12 -12 -12 -12 -12 -14 -14 -14 -14 -14 -14 -15 -15 -16 -16
1 1 1 -0 -2 -3 -4 -5 -5 -6 -6 -6 -7 -7 -7 -7 -7 -8 -8 -8 -7 -8 -8 -9 -9 -10 -10 -10 -11 -11 -11 -11 -12 -13 -14 -14 -14 -14 -14 -14 -14 -15 -16 -16
1 1 0 -1 -3 -3 -4 -5 -5 -6 -6 -6 -7 -7 -7 -8 -8 -8 -8 -8 -7 -8 -8 -8 -9 -9 -9 -10 -10 -10 -11 -11 -12 -13 -13 -14 -14 -14 -14 -14 -15 -15 -15 -16
0 0 -1 -2 -3 -3 -4 -5 -5 -6 -6 -6 -7 -7 -7 -8 -8 -7 -7 -7 -8 -8 -8 -9 -9 -9 -10 -10 -9 -9 -10 -11 -13 -13 -13 -12 -13 -13 -14 -14 -14 -15 -15 -16
0 -0 -2 -3 -3 -4 -4 -5 -5 -6 -6 -6 -7 -7 -7 -7 -7 -7 -7 -6 -7 -7 -8 -9 -9 -10 -10 -9 -9 -9 -10 -11 -12 -13 -13 -12 -12 -13 -14 -14 -14 -15 -15 -16
0 -1 -2 -3 -3 -4 -4 -5 -6 -6 -6 -6 -7 -7 -7 -7 -7 -7 -7 -7 -7 -7 -8 -8 -8 -10 -10 -9 -9 -9 -10 -11 -12 -13 -12 -12 -12 -12 -13 -13 -14 -15 -15 -15
-0 -1 -2 -3 -3 -4 -5 -5 -6 -6 -6 -7 -7 -7 -7 -7 -7 -7 -6 -7 -7 -7 -8 -8 -8 -9 -9 -9 -9 -9 -9 -10 -11 -12 -12 -12 -12 -12 -12 -13 -13 -14 -14 -14
-1 -2 -2 -3 -4 -4 -5 -5 -6 -6 -6 -7 -7 -7 -7 -7 -7 -7 -7 -7 -7 -7 -7 -8 -8 -8 -9 -9 -9 -9 -9 -9 -10 -11 -11 -12 -12 -12 -12 -12 -12 -13 -13 -13
-1 -2 -3 -3 -4 -4 -5 -6 -6 -6 -6 -7 -7 -7 -7 -7 -7 -7 -7 -7 -7 -7 -7 -7 -7 -8 -8 -9 -9 -9 -9 -9 -10 -10 -10 -11 -11 -11 -12 -12 -12 -12 -13 -13
-2 -2 -3 -3 -4 -5 -5 -5 -6 -6 -6 -7 -7 -7 -7 -7 -7 -7 -7 -7 -7 -7 -7 -7 -7 -7 -8 -8 -9 -9 -9 -9 -9 -9 -10 -10 -10 -10 -11 -11 -12 -12 -12 -13
-2 -3 -4 -4 -5 -5 -5 -6 -6 -6 -6 -7 -7 -7 -7 -7 -7 -7 -7 -7 -7 -7 -7 -7 -7 -7 -8 -8 -9 -9 -9 -9 -9 -9 -9 -9 -10 -10 -10 -10 -10 -11 -11 -12
Wind_Speed
3 3 4 4 2 4 6 6 6 7 7 10 9 10 12 9 8 11 11 12 11 12 10 10 11 12 14 14 14 15 16 17 17 17 17 17 18 18 18 19 19 18 16 16
2 2 4 4 4 5 5 4 5 7 8 6 8 8 9 9 9 11 13 13 13 14 14 12 12 14 14 14 14 14 15 16 17 17 17 16 17 18 18 18 18 18 16 16
4 6 4 5 7 7 5 5 5 7 6 7 9 10 11 6 7 10 12 12 13 12 11 11 10 12 13 14 13 14 14 15 16 17 17 17 18 18 17 16 16 17 15 16
3 6 5 4 2 4 3 6 6 7 7 8 8 9 4 5 6 8 9 10 10 10 11 9 8 10 12 12 12 13 13 14 15 16 17 17 16 16 15 13 13 13 13 15
2 4 9 4 3 4 2 6 4 5 8 8 6 6 1 4 5 6 5 6 7 7 8 9 10 11 12 12 12 13 14 14 14 14 15 15 15 15 13 11 10 12 11 13
3 2 6 2 4 4 3 6 5 5 7 6 6 8 3 3 5 6 5 6 7 8 8 9 10 10 11 12 12 13 14 14 14 13 15 13 14 14 14 12 13 13 13 12
5 6 9 4 5 6 2 5 1 1 3 2 2 3 4 5 6 5 6 7 7 8 8 9 10 10 11 12 12 14 15 14 14 14 14 11 11 12 13 14 14 13 13 13
5 5 9 5 8 7 7 1 1 1 1 1 3 3 5 6 7 8 9 8 8 8 9 9 9 10 11 12 13 14 14 15 14 13 13 13 11 11 11 12 12 11 11 12
10 8 3 5 7 5 3 0 2 2 1 1 1 2 4 6 7 7 8 9 8 9 10 9 9 10 12 13 13 13 14 14 14 14 12 11 10 10 10 9 10 10 10 11
6 7 6 4 3 3 4 4 4 4 3 3 1 2 4 6 7 8 9 8 9 10 11 11 11 11 11 13 14 14 15 15 14 12 12 10 11 10 9 9 10 10 10 11
6 5 2 3 4 5 5 6 6 5 4 4 2 2 3 5 7 8 10 10 10 10 12 13 13 13 14 13 12 14 15 15 14 13 12 10 10 9 11 8 11 11 6 8
7 6 6 4 5 7 7 5 6 6 5 4 3 2 4 5 6 6 9 11 11 12 13 13 14 15 14 13 12 14 15 15 13 13 12 12 11 12 15 15 19 18 15 13
4 4 5 7 5 5 6 6 6 6 5 3 2 2 4 5 7 8 10 11 12 13 14 14 15 15 15 14 15 14 16 16 14 14 13 14 14 13 12 12 15 16 16 15
5 6 5 5 5 6 7 8 8 7 5 4 2 3 4 5 6 8 9 10 12 13 13 13 14 15 15 14 16 16 16 18 17 13 13 13 13 12 10 9 9 9 12 14
5 5 6 8 8 7 7 7 6 5 3 2 3 3 5 6 8 9 10 11 12 13 12 13 14 16 16 15 17 18 16 14 14 13 12 12 12 11 9 7 7 7 7 8
8 9 9 8 8 7 7 6 5 5 3 1 2 4 5 7 8 9 10 9 10 13 13 14 14 16 16 17 17 15 13 21 19 13 12 12 11 11 9 8 7 6 6 6
11 8 8 7 8 7 6 6 7 6 4 2 2 4 6 7 7 9 10 10 9 10 12 12 15 17 16 15 15 12 11 14 21 15 11 11 11 11 10 8 6 6 5 7
8 8 8 8 9 9 8 7 7 7 4 2 1 3 5 6 8 11 12 13 12 12 10 11 14 14 13 13 12 10 11 12 12 12 13 13 13 11 10 8 6 5 4 5
8 9 8 9 10 10 9 8 7 6 5 3 1 3 4 6 7 9 10 10 10 12 13 14 21 17 15 15 15 8 11 12 13 13 13 18 16 12 11 9 6 3 3 3
9 9 9 10 9 8 9 8 8 6 4 3 1 3 6 7 8 9 9 7 5 8 13 14 12 13 13 11 16 8 11 13 14 14 13 13 13 12 11 11 8 4 3 2
11 10 10 10 8 8 9 9 8 7 5 3 1 3 6 8 8 7 7 7 9 12 12 17 12 12 10 13 15 10 11 13 13 13 13 12 12 12 12 11 10 8 6 4
10 10 11 10 10 8 7 7 7 6 5 2 1 3 5 7 8 7 6 5 8 17 11 7 9 16 19 17 9 10 12 13 12 11 11 10 10 11 11 11 10 9 7 5
10 10 11 10 10 9 8 6 6 6 5 3 2 3 5 6 6 5 7 7 7 16 10 7 16 22 22 12 10 11 12 13 12 10 10 9 8 8 9 10 9 8 7 6
11 11 10 8 9 9 8 7 6 4 4 2 3 4 4 5 5 4 4 12 15 15 7 13 20 21 19 9 10 11 12 12 12 10 9 8 7 7 7 7 7 7 7 8
11 10 10 11 10 8 7 7 6 4 4 3 4 5 4 4 4 6 6 7 13 13 7 13 19 20 13 8 10 11 11 12 14 13 10 8 7 7 7 7 7 7 7 7
10 10 9 8 7 7 7 7 5 5 4 3 2 2 3 3 5 5 5 6 9 12 8 8 11 13 10 9 9 11 11 13 14 14 14 10 7 6 6 7 8 7 7 7
9 8 7 6 5 6 7 7 6 6 5 4 3 2 3 4 4 5 5 6 6 6 6 8 10 10 10 10 10 11 12 13 14 13 14 13 8 6 6 8 7 8 8 9
Wind_Direction
280 338 284 253 222 178 182 196 218 260 281 297 311 320 318 326 333 341 345 342 347 346 341 339 342 344 343 339 339 340 340 340 340 338 336 337 338 341 341 342 342 342 346 352
282 334 298 236 196 181 189 201 247 277 281 267 302 315 318 327 340 343 341 342 346 344 341 341 343 344 340 336 335 337 337 337 338 339 340 340 341 344 344 343 343 345 348 351
289 314 340 272 206 187 208 214 223 257 264 303 318 321 325 341 359 347 340 343 343 340 336 333 337 340 335 332 330 334 335 335 338 339 341 341 345 346 344 342 343 346 349 352
319 5 290 276 162 165 235 264 244 242 269 297 301 305 342 55 10 344 337 338 334 333 330 324 328 333 331 328 330 334 335 335 337 338 339 340 345 345 342 338 341 343 342 348
72 305 281 281 207 179 223 283 243 230 276 301 320 312 132 56 11 329 325 325 320 323 317 320 327 332 332 330 332 336 337 336 335 335 336 339 344 342 341 338 341 342 343 346
127 264 263 263 162 132 106 291 261 243 285 311 347 336 344 37 349 330 332 325 319 318 317 322 323 328 330 329 331 334 336 333 331 333 335 336 341 339 341 343 346 347 347 346
178 233 267 232 139 117 149 271 264 280 305 323 292 271 342 358 340 340 332 321 318 318 318 317 320 327 328 326 325 328 330 330 330 330 326 333 337 334 337 343 344 346 346 345
168 218 264 195 143 175 217 259 6 49 87 266 280 324 344 335 332 336 330 325 319 320 319 317 319 325 323 321 319 321 323 324 324 324 323 332 330 328 332 336 339 339 343 345
195 217 256 189 189 192 156 104 85 136 160 145 348 335 327 327 327 328 328 325 324 318 318 318 318 322 317 314 316 318 318 316 315 317 317 316 319 322 325 329 333 335 344 345
244 256 239 231 193 107 83 105 118 128 123 113 99 334 332 332 333 333 330 328 330 326 325 322 320 317 310 310 316 315 315 313 311 311 308 306 313 319 319 318 319 327 342 340
252 267 233 216 155 118 107 113 113 102 96 94 87 4 339 320 324 329 333 333 331 326 321 317 317 315 313 313 312 311 311 310 311 309 303 300 300 303 308 302 307 322 329 330
219 208 170 173 131 133 143 143 133 125 108 80 63 10 335 317 318 324 329 329 327 323 317 316 317 314 312 312 311 309 311 312 311 310 308 308 307 304 302 308 318 322 323 330
170 138 123 122 113 123 129 122 107 108 121 118 84 21 344 324 326 328 325 324 322 317 315 315 315 313 313 314 314 310 309 311 311 312 311 310 307 305 302 306 315 322 324 327
152 123 124 147 138 116 111 108 101 93 93 100 75 26 350 322 317 321 317 314 312 312 313 316 316 314 314 315 314 312 312 314 317 311 308 307 307 307 302 303 315 318 322 325
120 123 135 127 121 116 114 112 114 121 122 90 40 10 342 326 318 313 310 313 316 317 318 321 318 315 314 316 317 317 318 318 317 318 322 324 323 320 312 303 303 305 309 318
112 102 119 138 146 143 135 137 148 160 153 105 6 338 320 305 300 303 307 312 317 319 318 317 316 314 316 317 320 320 319 326 338 337 332 328 324 318 311 301 293 288 290 296
135 150 166 172 169 159 156 159 162 159 155 153 311 313 316 319 320 324 325 324 315 306 304 308 315 316 316 321 324 324 328 335 340 335 325 322 317 314 313 305 292 281 273 280
161 170 173 168 164 154 145 142 145 149 156 160 304 331 340 340 331 323 322 324 326 325 319 320 318 319 325 327 329 340 340 334 334 333 334 335 340 337 327 315 303 293 280 291
129 134 136 139 144 148 147 149 152 151 144 122 37 348 324 315 310 308 312 319 325 330 324 320 330 336 327 329 346 341 338 340 341 341 343 352 358 354 351 345 330 308 292 287
126 124 120 121 125 136 145 148 148 147 143 127 43 346 334 326 316 311 309 303 292 298 301 318 334 328 322 337 356 344 344 345 344 345 352 359 358 356 355 357 359 352 335 312
139 136 135 137 137 141 148 150 151 154 154 143 86 328 314 310 313 315 321 327 327 321 325 341 338 325 338 357 356 348 346 345 345 350 356 359 357 358 0 5 8 11 9 360
149 148 148 147 145 146 149 149 150 152 154 164 254 307 318 322 322 314 293 275 310 329 343 336 326 343 0 0 349 348 346 343 341 349 357 358 357 355 356 359 4 6 4 355
155 154 155 158 157 150 144 149 157 161 168 184 258 305 311 304 302 309 328 326 323 336 349 327 344 355 3 359 349 347 344 341 340 347 354 354 351 347 346 347 351 352 350 347
154 155 152 143 135 142 158 170 169 170 178 219 262 273 280 299 303 277 283 323 336 343 345 343 356 1 4 356 348 344 342 339 340 343 343 345 343 338 335 335 337 338 339 338
152 147 147 153 165 174 169 158 161 180 202 237 263 266 261 262 280 300 308 321 336 346 340 346 356 359 359 347 347 343 339 339 343 345 336 334 334 331 324 320 321 321 322 322
155 163 169 177 171 160 156 161 173 186 189 203 236 256 285 293 293 298 312 327 334 345 342 337 343 350 349 347 346 344 340 338 340 343 341 332 319 318 316 314 309 307 305 303
135 142 147 151 159 163 163 171 179 184 183 184 204 240 286 303 310 323 335 341 340 335 331 338 343 346 345 346 346 346 343 341 343 347 347 342 327 305 300 300 297 296 296 294
Height
1601 1601 1600 1598 1598 1600 1603 1604 1607 1604 1602 1597 1594 1591 1587 1584 1580 1577 1573 1567 1561 1555 1550 1544 1537 1530 1524 1518 1512 1505 1498 1491 1484 1477 1471 1465 1458 1452 1446 1440 1434 1428 1424 1419
1601 1603 1602 1600 1599 1599 1600 1601 1602 1602 1600 1594 1592 1589 1585 1581 1577 1574 1570 1565 1559 1554 1548 1542 1536 1528 1522 1516 1510 1504 1497 1490 1483 1477 1470 1463 1457 1451 1445 1439 1434 1429 1424 1420
1605 1605 1600 1599 1597 1597 1598 1597 1600 1601 1597 1592 1590 1586 1583 1578 1576 1573 1568 1563 1557 1552 1547 1541 1535 1528 1521 1515 1509 1503 1496 1489 1483 1476 1470 1463 1457 1451 1445 1439 1434 1429 1425 1421
1612 1608 1599 1596 1593 1594 1596 1596 1595 1595 1593 1591 1588 1584 1580 1577 1575 1572 1567 1562 1556 1551 1545 1539 1533 1527 1520 1514 1508 1502 1495 1489 1483 1476 1470 1463 1457 1451 1445 1440 1435 1431 1426 1422
1618 1614 1604 1596 1593 1594 1596 1595 1592 1592 1590 1588 1584 1580 1577 1576 1574 1570 1565 1560 1555 1549 1543 1537 1531 1525 1519 1513 1507 1501 1494 1489 1483 1477 1470 1464 1458 1452 1446 1441 1436 1432 1428 1423
1620 1609 1598 1589 1591 1591 1596 1596 1591 1590 1589 1586 1582 1580 1579 1575 1572 1568 1564 1559 1553 1547 1542 1535 1529 1523 1517 1512 1506 1500 1494 1489 1483 1477 1471 1466 1460 1454 1448 1443 1438 1434 1429 1425
1619 1616 1596 1589 1589 1592 1599 1596 1590 1588 1587 1584 1582 1582 1579 1574 1571 1566 1562 1557 1552 1546 1540 1534 1528 1522 1516 1511 1505 1500 1494 1489 1483 1477 1471 1466 1461 1455 1450 1444 1439 1434 1430 1426
1614 1615 1601 1585 1586 1590 1590 1588 1588 1586 1584 1582 1580 1578 1575 1572 1569 1565 1560 1556 1550 1545 1539 1533 1527 1521 1515 1510 1505 1499 1493 1488 1482 1476 1471 1465 1459 1454 1450 1445 1439 1435 1430 1425
1593 1588 1581 1581 1581 1583 1585 1585 1585 1584 1581 1579 1577 1575 1573 1570 1567 1563 1559 1554 1549 1543 1538 1532 1526 1520 1514 1508 1503 1497 1491 1486 1480 1475 1470 1464 1458 1453 1448 1444 1440 1436 1431 1427
1584 1579 1579 1581 1581 1582 1583 1583 1582 1581 1579 1577 1576 1573 1572 1569 1566 1562 1557 1552 1547 1542 1536 1530 1525 1519 1513 1507 1501 1495 1489 1482 1476 1471 1466 1462 1457 1452 1447 1443 1439 1436 1433 1428
1580 1576 1578 1579 1580 1580 1581 1580 1579 1578 1577 1576 1574 1572 1571 1568 1565 1560 1556 1552 1547 1541 1535 1529 1523 1518 1511 1505 1499 1493 1486 1479 1473 1468 1462 1457 1454 1450 1446 1442 1440 1437 1433 1430
1574 1571 1573 1576 1577 1578 1578 1577 1576 1576 1575 1574 1573 1572 1570 1567 1564 1560 1556 1551 1546 1540 1534 1528 1522 1516 1510 1503 1497 1490 1483 1476 1470 1464 1458 1453 1449 1444 1442 1440 1437 1434 1432 1430
1568 1569 1571 1573 1575 1575 1575 1574 1573 1573 1573 1572 1571 1570 1568 1566 1563 1559 1555 1551 1545 1540 1534 1527 1521 1514 1508 1502 1496 1489 1481 1474 1467 1461 1455 1450 1445 1441 1436 1433 1432 1430 1428 1427
1566 1568 1570 1572 1573 1573 1572 1571 1571 1572 1572 1571 1570 1569 1567 1565 1562 1559 1555 1550 1545 1540 1534 1527 1521 1514 1508 1501 1494 1487 1479 1472 1465 1459 1453 1447 1443 1438 1434 1430 1427 1424 1424 1424
1564 1567 1569 1570 1570 1570 1569 1569 1570 1571 1571 1570 1569 1568 1566 1564 1562 1559 1555 1550 1546 1540 1534 1527 1520 1514 1507 1500 1493 1486 1478 1471 1464 1458 1452 1446 1441 1436 1432 1428 1425 1422 1421 1421
1561 1565 1567 1568 1568 1568 1567 1568 1569 1570 1570 1570 1569 1567 1565 1564 1561 1559 1555 1550 1544 1539 1532 1526 1519 1513 1507 1500 1493 1486 1478 1471 1465 1458 1451 1444 1438 1433 1429 1426 1423 1420 1419 1418
1558 1561 1563 1564 1564 1564 1565 1566 1567 1568 1569 1568 1567 1566 1565 1564 1562 1559 1555 1550 1546 1540 1534 1527 1521 1514 1508 1501 1494 1486 1478 1471 1464 1456 1449 1443 1437 1432 1427 1423 1420 1418 1417 1416
1555 1558 1560 1561 1561 1562 1562 1564 1566 1567 1567 1567 1566 1566 1565 1563 1561 1558 1554 1551 1547 1542 1536 1529 1521 1515 1510 1503 1495 1488 1480 1472 1465 1457 1450 1443 1437 1431 1426 1422 1419 1417 1416 1415
1552 1555 1556 1557 1558 1559 1561 1562 1564 1565 1566 1566 1566 1565 1564 1563 1561 1558 1554 1550 1545 1540 1534 1528 1522 1517 1510 1503 1496 1490 1482 1474 1467 1459 1452 1445 1437 1431 1426 1423 1419 1417 1416 1415
1548 1551 1553 1554 1556 1558 1559 1561 1563 1564 1565 1565 1565 1564 1564 1562 1560 1557 1554 1550 1545 1540 1534 1528 1523 1517 1510 1504 1499 1492 1484 1476 1468 1461 1455 1447 1440 1434 1429 1425 1422 1419 1417 1416
1546 1548 1550 1553 1555 1556 1558 1560 1562 1563 1564 1564 1564 1564 1563 1562 1560 1557 1553 1549 1546 1540 1534 1530 1524 1517 1512 1507 1502 1494 1487 1479 1471 1465 1458 1452 1445 1439 1434 1429 1425 1422 1420 1418
1543 1545 1548 1551 1553 1555 1557 1559 1561 1562 1563 1564 1564 1563 1563 1562 1560 1557 1554 1549 1544 1539 1535 1530 1525 1520 1515 1510 1503 1496 1489 1482 1475 1469 1462 1456 1450 1444 1438 1434 1430 1426 1424 1421
1540 1543 1546 1548 1551 1553 1555 1558 1560 1561 1563 1563 1564 1564 1563 1561 1559 1556 1553 1549 1544 1539 1535 1531 1526 1522 1517 1511 1505 1498 1491 1484 1478 1472 1466 1460 1454 1449 1443 1438 1434 1430 1427 1424
1538 1540 1543 1546 1549 1551 1554 1557 1559 1560 1561 1563 1564 1564 1563 1562 1560 1558 1554 1550 1545 1540 1536 1532 1528 1523 1518 1512 1506 1500 1494 1487 1481 1476 1470 1464 1458 1453 1448 1443 1438 1434 1430 1426
1535 1538 1541 1543 1546 1549 1553 1555 1556 1558 1560 1562 1563 1563 1563 1562 1560 1558 1555 1551 1547 1542 1538 1533 1529 1524 1519 1513 1508 1502 1497 1491 1485 1479 1473 1467 1461 1456 1451 1446 1441 1437 1432 1428
1532 1536 1539 1543 1546 1548 1550 1552 1554 1556 1558 1560 1561 1562 1562 1561 1560 1558 1556 1552 1548 1543 1539 1534 1530 1525 1519 1515 1510 1505 1499 1494 1488 1482 1476 1470 1465 1459 1453 1448 1443 1438 1434 1429
1530 1534 1537 1540 1542 1545 1547 1549 1551 1553 1555 1557 1559 1560 1560 1560 1559 1558 1556 1553 1549 1545 1540 1536 1531 1526 1521 1516 1511 1506 1501 1496 1490 1485 1479 1474 1468 1462 1457 1451 1445 1440 1434 1429